Simultaneous Nadir Overpasses (SNOs) Predictions

Prediction of SNOs between METOP-A and NOAA-19 Satellite Orbit:

Table of predicted SNOs for the next 14.0 days since TLE Epoch: 5/22/2015
Index Date (METOP-A) Time (METOP-A) Lat,Lon (METOP-A) SZA (METOP-A ) Date (NOAA-19) Time (NOAA-19) Lat,Lon (NOAA-19) SZA (NOAA-19 ) Distance(km) Time Diff (sec)
1 05/26/2015 13:39:26 75.03, -27.80 53.83 05/26/2015 13:38:12 75.06, -28.09 53.87 8.92 74
2 05/26/2015 14:30:08 -75.00, 139.46 126.20 05/26/2015 14:29:09 -75.01, 139.32 126.20 3.87 59
3 05/26/2015 15:20:49 74.96, -53.34 53.75 05/26/2015 15:20:13 74.98, -53.36 53.77 2.22 36
4 05/26/2015 16:11:31 -74.93, 113.92 126.28 05/26/2015 16:11:10 -74.93, 114.05 126.29 3.73 21
5 05/26/2015 17:02:11 74.94, -78.74 53.72 05/26/2015 17:02:15 74.95, -78.78 53.73 1.45 4
6
